User: anonymous   Login
Location: Palomar Mountain Lodge
(33.3110°N, 116.8495°W)
Time: 06:56:32
(UTC-07:00)
Language:

LilacSat-2 - Orbit

View from above orbital plane
View from above orbital plane
View from above satellite
View from above satellite

Ground track
Ground track

The orbit is defined by the following mean orbital elements,

1 40908U          26109.21829729 +.00000000 +00000-0 +28849-3 0 00006
2 40908  97.4732 143.8793 0008913 105.5152 254.7084 15.49488528    04
Epoch (UTC): 19 April 2026 05:14:20
Eccentricity: 0.0008913
inclination: 97.4732°
perigee height: 412 km
apogee height: 424 km
right ascension of ascending node: 143.8793°
argument of perigee: 105.5152°
revolutions per day: 15.49488528
mean anomaly at epoch: 254.7084°

The dashed part of the orbit path shows where the satellite is in the earth's shadow,  

DLR